Location: Kuppenheim
(48.8299°N, 8.2568°E)
Time: 08:15:06
(UTC+00:00)

Envisat - Pass Details

Date: 05 December 2022
Orbit: 763 x 765 km, 98.2° (Epoch: 04 February)

Event Time Altitude Azimuth Distance (km) Brightness Sun altitude
Rises 16:03:41 0° 210° (SSW) 3,220 7.4 -5.4°
Reaches altitude 10° 16:06:46 10° 230° (SW) 2,300 7.1 -5.8°
Maximum altitude 16:10:05 17° 271° (W) 1,847 6.0 -6.3°
Drops below altitude 10° 16:13:25 10° 313° (NW) 2,312 5.8 -6.8°
Sets 16:16:32 0° 332° (NNW) 3,245 6.3 -7.3°
